Tracking 31027 objects as of 19-Jul-2025
HD Live streaming from Space Station
objects crossing your sky now

STARLINK-6366

Track STARLINK-6366 now!
10-day predictions
STARLINK-6366 is classified as:


NORAD ID: 57380
Int'l Code: 2023-099BE
Perigee: 565.4 km
Apogee: 567.0 km
Inclination: 43.0 °
Period: 95.8 minutes
Semi major axis: 6937 km
RCS: Unknown
Launch date: July 16, 2023
Source: United States (US)
Launch site: AIR FORCE EASTERN TEST RANGE (AFETR)
Your satellite tracking list
FLOCK 3S 1
Track 1 satellite(s)




NASA's NSSDC Master Catalog

Two Line Element Set (TLE):
1 57380U 23099BE  25199.26813171  .00000216  00000-0  31079-4 0  9994
2 57380  43.0040  43.6922 0001163 273.5927  86.4782 15.02535028112031
Source of the keplerian elements: AFSPC